#timestamp,LO_Frequency,Hit,StdDev 
1458115215.6,286046997.6,N
1458115235.4,286047002.8,N
1458115255.2,286047000.6,N
1458115275.1,286047002.1,N
1458115276.0,286047002.1,N
1458115295.8,286047002.1,N
1458115315.6,286047003.0,N
1458115335.5,286047005.5,N
1458115355.3,286047003.1,N
1458115375.1,286047003.5,N
1458115395.9,286047003.6,N
1458115415.7,286047003.2,N
1458115435.5,286047003.2,N
1458115455.4,286047002.9,N
1458115475.2,286047002.9,N
1458115495.0,286047005.9,N
1458115495.9,286047005.9,N
1458115515.8,286047003.3,N
1458115535.6,286047003.1,N
1458115555.4,286047004.8,N
1458115575.3,286047007.2,Y
1458115595.1,286047004.5,P
1458115596.0,286047004.5,P
1458115615.8,286047005.7,P
1458115635.7,286047006.9,Y
1458115655.5,286047005.9,P
1458115675.3,286047006.9,P
1458115695.2,286047008.0,P
1458115715.9,286047010.2,Y
1458115735.7,286047003.6,P
1458115755.6,286047000.5,N
1458115775.4,286046999.8,N
1458115795.2,286047002.5,N
1458115815.1,286047002.7,N
1458115816.0,286047002.7,N
1458115835.8,286047001.7,N
1458115855.6,286047003.0,N
1458115875.5,286047007.4,Y
1458115895.3,286047004.2,P
1458115915.1,286047001.6,N
1458115935.9,286047000.6,N
1458115955.7,286046998.2,N
1458115975.5,286047002.7,N
1458115995.3,286047001.3,N
1458116015.2,286047004.4,N
1458116035.0,286047005.5,N
1458116035.9,286047005.5,N
1458116055.7,286047004.1,N
1458116075.6,286047003.3,N
1458116095.4,286047005.7,N
1458116115.2,286047005.8,N
1458116135.1,286047002.1,N
1458116136.0,286047002.1,N
1458116155.8,286047002.2,N
1458116175.6,286047000.8,N
1458116195.5,286046998.1,N
1458116215.3,286046999.3,N
1458116235.1,286046993.4,N
1458116255.9,286046995.5,N
1458116275.7,286046998.6,N
1458116295.5,286046999.8,N
1458116315.3,286046998.6,N
1458116335.2,286046996.9,N
1458116355.0,286046996.4,N
1458116355.9,286046996.4,N
1458116375.7,286046994.7,N
1458116395.6,286046993.9,N
1458116415.4,286046994.7,N
1458116435.2,286046996.4,N
1458116455.1,286046992.0,N
1458116456.0,286046992.0,N
1458116475.8,286046992.0,N
1458116495.6,286046991.0,N
1458116515.5,286046991.2,N
1458116535.3,286046992.3,N
1458116555.1,286046994.4,N
1458116575.9,286046994.7,N
1458116595.7,286046994.2,N
1458116615.5,286046996.0,N
1458116635.3,286046994.2,N
1458116655.2,286046993.5,N
1458116675.0,286046994.8,N
1458116675.9,286046994.8,N
1458116695.8,286046991.0,Y
1458116715.6,286046997.1,P
1458116735.4,286046997.7,N
1458116755.2,286046990.4,P
1458116775.1,286046994.6,N
1458116776.0,286046994.6,N
1458116795.8,286046995.9,N
1458116815.6,286046996.8,N
1458116835.5,286046995.2,N
1458116855.3,286046996.4,N
1458116875.1,286046990.3,Y
1458116895.9,286046992.6,P
1458116915.7,286046992.4,P
1458116935.5,286046993.0,P
1458116955.4,286046993.8,Y
1458116975.2,286047000.9,P
1458116995.0,286047002.4,N
1458116995.9,286047002.4,N
1458117015.8,286047000.5,N
1458117035.6,286047004.0,N
1458117055.4,286047003.9,N
1458117075.3,286047002.1,N
1458117095.1,286047006.0,N
1458117096.0,286047006.0,N
1458117115.8,286047001.7,N
1458117135.7,286047003.8,N
1458117155.5,286047004.4,N
1458117175.3,286047001.5,N
1458117195.2,286047003.7,N
1458117215.9,286047004.7,N
1458117235.7,286047007.4,N
1458117255.5,286047005.6,N
1458117275.4,286047004.1,N
1458117295.2,286047003.9,N
1458117315.0,286047002.6,N
1458117315.9,286047002.6,N
1458117335.8,286047000.6,N
1458117355.6,286047004.1,N
1458117375.4,286047005.8,N
1458117395.3,286047004.5,N
1458117415.1,286047002.4,N
1458117416.0,286047002.4,N
1458117435.8,286047001.5,N
1458117455.7,286047000.5,N
1458117475.5,286046998.3,N
1458117495.3,286046999.8,N
1458117515.2,286047002.7,N
1458117535.9,286046998.5,N
1458117555.7,286046998.5,N
1458117575.5,286046999.9,N
1458117595.4,286047000.3,N
1458117615.2,286046999.3,N
1458117635.0,286046998.3,N
1458117635.9,286046998.3,N
1458117655.8,286046999.7,N
1458117675.6,286047001.7,N
1458117695.4,286047004.7,N
1458117715.3,286047007.0,N
1458117735.1,286047006.8,N
1458117755.8,286047006.6,N
1458117775.7,286047007.1,N
1458117795.5,286047007.4,N
1458117815.3,286047011.5,Y
1458117835.2,286047014.1,P
1458117855.9,286047015.0,N
1458117875.7,286047016.6,N
1458117895.6,286047017.7,Y
1458117915.4,286047008.5,P
1458117935.2,286047008.1,P
1458117955.1,286047007.7,P
1458117956.0,286047007.7,Y
1458117975.8,286047003.4,P
1458117995.6,286047004.5,N
1458118015.5,286047010.6,P
1458118035.3,286047013.1,Y
1458118055.1,286047005.0,P
1458118075.9,286047007.4,P
1458118095.7,286047005.0,P
1458118115.5,286047006.4,Y
1458118135.4,286047003.9,P
1458118155.2,286047001.4,N
1458118175.0,286047000.8,N
1458118175.9,286047000.8,N
1458118195.8,286047002.8,N
1458118215.6,286047000.0,N
1458118235.4,286047003.5,N
1458118255.3,286047005.8,Y
1458118275.1,286047002.0,P
1458118276.0,286047002.0,P
1458118295.8,286047005.3,P
1458118315.7,286047005.2,Y
1458118335.5,286046997.4,P
1458118355.3,286046993.5,N
1458118375.2,286046996.2,N
1458118395.9,286046992.3,N
1458118415.7,286046987.2,Y
1458118435.6,286046989.0,P
1458118455.4,286046989.6,N
1458118475.2,286046989.0,P
1458118495.1,286046990.0,Y
1458118496.0,286046990.0,P
1458118515.8,286046993.7,P
1458118535.6,286046991.9,P
1458118555.5,286046992.2,Y
1458118575.3,286046998.2,P
1458118595.1,286046997.9,N
1458118615.9,286047002.4,N
1458118635.7,286047002.8,N
1458118655.5,286046999.9,N
1458118675.4,286047000.9,N
1458118695.2,286047002.4,N
1458118715.0,286047000.6,N
1458118715.9,286047000.6,N
1458118735.8,286047000.0,N
1458118755.6,286047000.8,N
1458118775.4,286046998.8,N
1458118795.2,286047002.5,N
